Time,TemperatureF,DewpointF,PressureIn,WindDirection,WindDirectionDegrees,WindSpeedMPH,WindSpeedGustMPH,Humidity,HourlyPrecipIn,Conditions,Clouds,dailyrainin,SoftwareType,DateUTC
2013-10-17 00:00:00,37.3,34.3,29.96,North,0,0.0,0.0,89,0.00,,,0.00,WUHU216HW,2013-10-17 06:00:00,
2013-10-17 00:05:00,37.3,34.3,29.96,North,0,0.0,0.0,89,0.00,,,0.00,WUHU216HW,2013-10-17 06:05:00,
2013-10-17 00:30:00,37.1,34.1,29.96,North,0,0.0,0.0,89,0.00,,,0.00,WUHU216HW,2013-10-17 06:30:00,
2013-10-17 00:35:00,37.1,34.1,29.96,North,0,0.0,0.0,89,0.00,,,0.00,WUHU216HW,2013-10-17 06:35:00,
2013-10-17 01:00:00,37.1,34.1,29.96,North,0,0.0,0.0,89,0.00,,,0.00,WUHU216HW,2013-10-17 07:00:00,
2013-10-17 01:05:00,37.1,34.1,29.96,North,0,0.0,0.0,89,0.00,,,0.00,WUHU216HW,2013-10-17 07:05:00,
2013-10-17 01:30:00,37.1,34.1,29.96,North,0,0.0,0.0,89,0.00,,,0.00,WUHU216HW,2013-10-17 07:30:00,
2013-10-17 01:35:00,37.1,34.1,29.96,North,0,0.0,0.0,89,0.00,,,0.00,WUHU216HW,2013-10-17 07:35:00,
2013-10-17 02:00:00,37.1,34.1,29.95,North,0,0.0,0.0,89,0.00,,,0.00,WUHU216HW,2013-10-17 08:00:00,
2013-10-17 02:05:00,37.1,34.1,29.95,North,0,0.0,0.0,89,0.00,,,0.00,WUHU216HW,2013-10-17 08:05:00,
2013-10-17 02:08:00,37.1,34.1,29.95,North,0,0.0,0.0,89,0.00,,,0.00,WUHU216HW,2013-10-17 08:08:00,
2013-10-17 02:30:00,37.1,34.1,29.95,North,0,0.0,0.0,89,0.00,,,0.00,WUHU216HW,2013-10-17 08:30:00,
2013-10-17 02:35:00,37.1,34.1,29.95,North,0,0.0,0.0,89,0.00,,,0.00,WUHU216HW,2013-10-17 08:35:00,
2013-10-17 03:00:00,37.1,34.1,29.95,North,0,0.0,0.0,89,0.00,,,0.00,WUHU216HW,2013-10-17 09:00:00,
2013-10-17 03:05:00,36.9,33.9,29.95,North,0,0.0,0.0,89,0.00,,,0.00,WUHU216HW,2013-10-17 09:05:00,
2013-10-17 03:10:00,36.9,33.9,29.95,North,0,0.0,0.0,89,0.00,,,0.00,WUHU216HW,2013-10-17 09:10:00,
2013-10-17 03:30:00,36.7,33.8,29.95,North,0,0.0,0.0,89,0.00,,,0.00,WUHU216HW,2013-10-17 09:30:00,
2013-10-17 03:35:00,36.7,33.8,29.95,North,0,0.0,0.0,89,0.00,,,0.00,WUHU216HW,2013-10-17 09:35:00,
2013-10-17 04:00:00,36.2,33.5,29.94,North,0,0.0,0.0,90,0.00,,,0.00,WUHU216HW,2013-10-17 10:00:00,
2013-10-17 04:05:00,36.2,33.5,29.94,North,0,0.0,0.0,90,0.00,,,0.00,WUHU216HW,2013-10-17 10:05:00,
2013-10-17 04:10:00,36.2,33.5,29.94,North,0,0.0,0.0,90,0.00,,,0.00,WUHU216HW,2013-10-17 10:10:00,
2013-10-17 04:30:00,35.5,32.8,29.94,North,0,0.0,0.0,90,0.00,,,0.00,WUHU216HW,2013-10-17 10:30:00,
2013-10-17 04:35:00,35.5,32.8,29.94,North,0,0.0,0.0,90,0.00,,,0.00,WUHU216HW,2013-10-17 10:35:00,
2013-10-17 05:00:00,34.7,32.0,29.95,North,0,0.0,0.0,90,0.00,,,0.00,WUHU216HW,2013-10-17 11:00:00,
2013-10-17 05:05:00,34.7,32.0,29.95,North,0,0.0,0.0,90,0.00,,,0.00,WUHU216HW,2013-10-17 11:05:00,
2013-10-17 05:10:00,34.7,32.0,29.95,North,0,0.0,0.0,90,0.00,,,0.00,WUHU216HW,2013-10-17 11:10:00,
2013-10-17 05:30:00,34.7,32.3,29.95,North,0,0.0,0.0,91,0.00,,,0.00,WUHU216HW,2013-10-17 11:30:00,
2013-10-17 05:35:00,34.7,32.3,29.95,North,0,0.0,0.0,91,0.00,,,0.00,WUHU216HW,2013-10-17 11:35:00,
2013-10-17 06:00:00,35.3,32.9,29.95,North,0,0.0,0.0,91,0.00,,,0.00,WUHU216HW,2013-10-17 12:00:00,
2013-10-17 06:05:00,35.3,32.9,29.95,North,0,0.0,0.0,91,0.00,,,0.00,WUHU216HW,2013-10-17 12:05:00,
2013-10-17 06:10:00,35.3,32.9,29.95,North,0,0.0,0.0,91,0.00,,,0.00,WUHU216HW,2013-10-17 12:10:00,
2013-10-17 06:30:00,35.3,33.1,29.95,North,0,0.0,0.0,92,0.00,,,0.00,WUHU216HW,2013-10-17 12:30:00,
2013-10-17 06:35:00,35.3,33.1,29.95,North,0,0.0,0.0,92,0.00,,,0.00,WUHU216HW,2013-10-17 12:35:00,
2013-10-17 07:00:00,34.6,32.4,29.95,NW,315,0.0,0.0,92,0.00,,,0.00,WUHU216HW,2013-10-17 13:00:00,
2013-10-17 07:05:00,34.6,32.4,29.95,NW,315,0.0,0.0,92,0.00,,,0.00,WUHU216HW,2013-10-17 13:05:00,
2013-10-17 07:10:00,34.6,32.4,29.95,NW,315,0.0,0.0,92,0.00,,,0.00,WUHU216HW,2013-10-17 13:10:00,
2013-10-17 07:30:00,34.4,32.2,29.96,NW,315,0.0,0.0,92,0.00,,,0.00,WUHU216HW,2013-10-17 13:30:00,
2013-10-17 07:35:00,34.4,32.2,29.96,NW,315,0.0,0.0,92,0.00,,,0.00,WUHU216HW,2013-10-17 13:35:00,
2013-10-17 08:00:00,34.7,32.6,29.97,NW,315,0.0,0.0,92,0.00,,,0.00,WUHU216HW,2013-10-17 14:00:00,
2013-10-17 08:05:00,34.7,32.6,29.97,NW,315,0.0,0.0,92,0.00,,,0.00,WUHU216HW,2013-10-17 14:05:00,
2013-10-17 08:30:00,35.1,32.9,29.97,WNW,293,0.0,0.0,92,0.00,,,0.00,WUHU216HW,2013-10-17 14:30:00,
2013-10-17 08:35:00,35.1,32.9,29.97,WNW,293,0.0,0.0,92,0.00,,,0.00,WUHU216HW,2013-10-17 14:35:00,
2013-10-17 09:00:00,35.6,33.5,29.99,WNW,293,0.0,0.0,92,0.00,,,0.00,WUHU216HW,2013-10-17 15:00:00,
2013-10-17 09:05:00,35.6,33.5,29.99,WNW,293,0.0,0.0,92,0.00,,,0.00,WUHU216HW,2013-10-17 15:05:00,
2013-10-17 09:10:00,35.6,33.5,29.99,WNW,293,0.0,0.0,92,0.00,,,0.00,WUHU216HW,2013-10-17 15:10:00,
2013-10-17 09:30:00,37.1,34.9,29.99,WNW,293,0.0,0.0,92,0.00,,,0.00,WUHU216HW,2013-10-17 15:30:00,
2013-10-17 09:35:00,37.1,34.9,29.99,WNW,293,0.0,0.0,92,0.00,,,0.00,WUHU216HW,2013-10-17 15:35:00,
2013-10-17 10:00:00,39.8,37.1,29.99,WNW,293,0.0,0.0,90,0.00,,,0.00,WUHU216HW,2013-10-17 16:00:00,
2013-10-17 10:05:00,39.8,37.1,29.99,WNW,293,0.0,0.0,90,0.00,,,0.00,WUHU216HW,2013-10-17 16:05:00,
2013-10-17 10:30:00,41.6,38.0,30.00,NNE,23,0.7,0.7,87,0.00,,,0.00,WUHU216HW,2013-10-17 16:30:00,
2013-10-17 10:35:00,41.6,38.0,30.00,NNE,23,0.7,0.7,87,0.00,,,0.00,WUHU216HW,2013-10-17 16:35:00,
2013-10-17 11:00:00,43.9,39.4,30.00,SE,135,0.0,0.0,84,0.00,,,0.00,WUHU216HW,2013-10-17 17:00:00,
2013-10-17 11:05:00,43.9,39.4,30.00,SE,135,0.0,0.0,84,0.00,,,0.00,WUHU216HW,2013-10-17 17:05:00,
2013-10-17 11:30:00,43.2,37.7,30.01,NW,315,0.0,0.0,81,0.00,,,0.00,WUHU216HW,2013-10-17 17:30:00,
2013-10-17 11:35:00,43.2,37.7,30.01,NW,315,0.0,0.0,81,0.00,,,0.00,WUHU216HW,2013-10-17 17:35:00,
2013-10-17 12:00:00,47.9,39.6,30.01,West,270,0.4,0.4,73,0.00,,,0.00,WUHU216HW,2013-10-17 18:00:00,
2013-10-17 12:05:00,47.9,39.6,30.01,West,270,0.4,0.4,73,0.00,,,0.00,WUHU216HW,2013-10-17 18:05:00,
2013-10-17 12:30:00,46.4,39.7,30.01,SE,135,0.0,0.0,77,0.00,,,0.00,WUHU216HW,2013-10-17 18:30:00,
2013-10-17 12:35:00,46.4,39.7,30.01,SE,135,0.0,0.0,77,0.00,,,0.00,WUHU216HW,2013-10-17 18:35:00,
2013-10-17 13:00:00,47.2,39.0,30.02,West,270,0.0,0.0,73,0.00,,,0.00,WUHU216HW,2013-10-17 19:00:00,
2013-10-17 13:05:00,47.2,39.0,30.02,West,270,0.0,0.0,73,0.00,,,0.00,WUHU216HW,2013-10-17 19:05:00,
2013-10-17 13:30:00,50.6,39.3,29.99,West,270,1.1,1.1,65,0.00,,,0.00,WUHU216HW,2013-10-17 19:30:00,
2013-10-17 13:31:00,50.6,39.3,29.99,West,270,1.1,1.1,65,0.00,,,0.00,WUHU216HW,2013-10-17 19:31:00,
2013-10-17 13:36:00,50.6,39.3,29.99,West,270,1.1,1.1,65,0.00,,,0.00,WUHU216HW,2013-10-17 19:36:00,
2013-10-17 14:00:00,48.2,38.2,29.99,West,270,2.2,2.2,68,0.00,,,0.00,WUHU216HW,2013-10-17 20:00:00,
2013-10-17 14:05:00,48.2,38.2,29.99,West,270,2.2,2.2,68,0.00,,,0.00,WUHU216HW,2013-10-17 20:05:00,
2013-10-17 14:30:00,48.6,37.4,29.99,WSW,248,0.0,0.0,65,0.00,,,0.00,WUHU216HW,2013-10-17 20:30:00,
2013-10-17 14:35:00,48.6,37.4,29.99,WSW,248,0.0,0.0,65,0.00,,,0.00,WUHU216HW,2013-10-17 20:35:00,
2013-10-17 15:00:00,49.0,38.1,29.99,SW,225,1.1,1.1,66,0.00,,,0.00,WUHU216HW,2013-10-17 21:00:00,
2013-10-17 15:05:00,49.0,38.1,29.99,SW,225,1.1,1.1,66,0.00,,,0.00,WUHU216HW,2013-10-17 21:05:00,
2013-10-17 15:30:00,49.3,37.6,29.98,WSW,248,0.0,0.0,64,0.00,,,0.00,WUHU216HW,2013-10-17 21:30:00,
2013-10-17 15:35:00,49.3,37.6,29.98,WSW,248,0.0,0.0,64,0.00,,,0.00,WUHU216HW,2013-10-17 21:35:00,
2013-10-17 16:00:00,50.4,37.8,29.98,NW,315,0.0,0.0,62,0.00,,,0.00,WUHU216HW,2013-10-17 22:00:00,
2013-10-17 16:05:00,50.4,37.8,29.98,NW,315,0.0,0.0,62,0.00,,,0.00,WUHU216HW,2013-10-17 22:05:00,
2013-10-17 16:30:00,50.0,38.4,29.99,NW,315,0.0,0.0,64,0.00,,,0.00,WUHU216HW,2013-10-17 22:30:00,
2013-10-17 16:35:00,50.0,38.4,29.99,NW,315,0.0,0.0,64,0.00,,,0.00,WUHU216HW,2013-10-17 22:35:00,
2013-10-17 17:00:00,50.6,39.3,29.98,ESE,113,0.2,0.2,65,0.00,,,0.00,WUHU216HW,2013-10-17 23:00:00,
2013-10-17 17:05:00,50.6,39.3,29.98,ESE,113,0.2,0.2,65,0.00,,,0.00,WUHU216HW,2013-10-17 23:05:00,
2013-10-17 17:10:00,50.6,39.3,29.98,ESE,113,0.2,0.2,65,0.00,,,0.00,WUHU216HW,2013-10-17 23:10:00,
2013-10-17 17:30:00,49.7,38.8,29.99,ESE,113,0.0,0.0,66,0.00,,,0.00,WUHU216HW,2013-10-17 23:30:00,
2013-10-17 17:35:00,49.7,38.8,29.99,ESE,113,0.0,0.0,66,0.00,,,0.00,WUHU216HW,2013-10-17 23:35:00,
2013-10-17 18:00:00,50.9,39.5,29.98,SSE,158,0.0,0.0,65,0.00,,,0.00,WUHU216HW,2013-10-18 00:00:00,
2013-10-17 18:05:00,50.8,39.4,29.98,SSE,158,0.0,0.0,65,0.00,,,0.00,WUHU216HW,2013-10-18 00:05:00,
2013-10-17 18:10:00,50.8,39.4,29.98,SSE,158,0.0,0.0,65,0.00,,,0.00,WUHU216HW,2013-10-18 00:10:00,
2013-10-17 18:30:00,49.1,37.8,29.99,NW,315,0.0,0.0,65,0.00,,,0.00,WUHU216HW,2013-10-18 00:30:00,
2013-10-17 18:35:00,49.1,37.8,29.99,NW,315,0.0,0.0,65,0.00,,,0.00,WUHU216HW,2013-10-18 00:35:00,
2013-10-17 19:00:00,47.3,37.7,29.99,NW,315,0.0,0.0,69,0.00,,,0.00,WUHU216HW,2013-10-18 01:00:00,
2013-10-17 19:05:00,47.3,37.7,29.99,NW,315,0.0,0.0,69,0.00,,,0.00,WUHU216HW,2013-10-18 01:05:00,
2013-10-17 19:10:00,47.3,37.7,29.99,NW,315,0.0,0.0,69,0.00,,,0.00,WUHU216HW,2013-10-18 01:10:00,
2013-10-17 19:30:00,45.7,38.3,29.99,NW,315,0.0,0.0,75,0.00,,,0.00,WUHU216HW,2013-10-18 01:30:00,
2013-10-17 19:35:00,45.7,38.3,29.99,NW,315,0.0,0.0,75,0.00,,,0.00,WUHU216HW,2013-10-18 01:35:00,
2013-10-17 20:00:00,45.0,37.9,30.00,West,270,0.0,0.0,76,0.00,,,0.00,WUHU216HW,2013-10-18 02:00:00,
2013-10-17 20:05:00,45.0,37.9,30.00,West,270,0.0,0.0,76,0.00,,,0.00,WUHU216HW,2013-10-18 02:05:00,
2013-10-17 20:10:00,45.0,37.9,30.00,West,270,0.0,0.0,76,0.00,,,0.00,WUHU216HW,2013-10-18 02:10:00,
2013-10-17 20:30:00,43.4,37.6,30.00,West,270,0.2,0.2,80,0.00,,,0.00,WUHU216HW,2013-10-18 02:30:00,
2013-10-17 20:35:00,43.4,37.6,30.00,West,270,0.2,0.2,80,0.00,,,0.00,WUHU216HW,2013-10-18 02:35:00,
2013-10-17 21:00:00,42.3,36.5,30.01,NW,315,0.0,0.0,80,0.00,,,0.00,WUHU216HW,2013-10-18 03:00:00,
2013-10-17 21:05:00,42.3,36.5,30.01,NW,315,0.0,0.0,80,0.00,,,0.00,WUHU216HW,2013-10-18 03:05:00,
2013-10-17 21:30:00,40.3,35.2,30.01,NW,315,0.0,0.0,82,0.00,,,0.00,WUHU216HW,2013-10-18 03:30:00,
2013-10-17 21:35:00,40.3,35.2,30.01,NW,315,0.0,0.0,82,0.00,,,0.00,WUHU216HW,2013-10-18 03:35:00,
2013-10-17 22:00:00,38.3,34.2,30.01,NW,315,0.0,0.0,85,0.00,,,0.00,WUHU216HW,2013-10-18 04:00:00,
2013-10-17 22:01:00,38.3,34.2,30.01,NW,315,0.0,0.0,85,0.00,,,0.00,WUHU216HW,2013-10-18 04:01:00,
2013-10-17 22:06:00,38.3,34.2,30.01,NW,315,0.0,0.0,85,0.00,,,0.00,WUHU216HW,2013-10-18 04:06:00,
2013-10-17 22:30:00,36.7,33.1,30.01,NW,315,0.0,0.0,87,0.00,,,0.00,WUHU216HW,2013-10-18 04:30:00,
2013-10-17 22:35:00,36.7,33.1,30.01,NW,315,0.0,0.0,87,0.00,,,0.00,WUHU216HW,2013-10-18 04:35:00,
2013-10-17 23:00:00,35.5,31.9,30.02,NW,315,0.0,0.0,87,0.00,,,0.00,WUHU216HW,2013-10-18 05:00:00,
2013-10-17 23:05:00,35.5,31.9,30.02,NW,315,0.0,0.0,87,0.00,,,0.00,WUHU216HW,2013-10-18 05:05:00,
2013-10-17 23:30:00,33.3,29.5,30.02,NW,315,0.0,0.0,86,0.00,,,0.00,WUHU216HW,2013-10-18 05:30:00,
2013-10-17 23:35:00,33.3,29.5,30.02,NW,315,0.0,0.0,86,0.00,,,0.00,WUHU216HW,2013-10-18 05:35:00,